Regional Weather Roundup
Issued by NWS Newport/Morehead, NC

Current Version | Previous Version | Graphics & Text | Print | Product List | Glossary On
Versions: 1 2 3 4 5 6 7 8 9 10 11 12 13 14 15 16 17 18 19 20 21 22 23 24 25 26 27 28 29 30 31 32 33 34 35 36 37 38 39 40 41 42 43 44 45 46 47 48 49 50
000 ASUS42 KMHX 270212 RWRMHX WEATHER ROUNDUP FOR EASTERN NORTH CAROLINA NATIONAL WEATHER SERVICE NEWPORT/MOREHEAD CITY NC 1000 PM EDT THU MAR 26 2015 NOTE: "FAIR" INDICATES FEW OR NO CLOUDS BELOW 12,000 FEET WITH NO SIGNIFICANT WEATHER AND/OR OBSTRUCTIONS TO VISIBILITY NCZ015>017-031-032-045>047-102-103-270300- NORTH COAST CITY SKY/WX TMP DP RH WIND PRES REMARKS EDENTON CLOUDY 65 58 79 S13 29.76S ELIZABETH CITY CLOUDY 66 56 70 S13 29.75S KITTY HAWK CLOUDY 62 58 87 SW9G17 29.78S MANTEO CLOUDY 61 58 90 SW21 29.79F $$ NCZ045>047-081-094-103-104-270300- CENTRAL COAST CITY SKY/WX TMP DP RH WIND PRES REMARKS FRISCO CLOUDY 65 59 81 SW16 29.84R SWANQUARTER N/A 63 N/A N/A S17 29.77S $$ NCZ095-097-098-100-101-270300- SOUTHERN COAST CITY SKY/WX TMP DP RH WIND PRES REMARKS BEAUFORT CLOUDY 62 60 93 S12 29.84R CEDAR ISLAND N/A 66 N/A N/A S8G21 29.88R JACKSONVILLE MOCLDY 63 57 81 S8 29.81F PINEY ISLAND CLOUDY N/A N/A N/A S15G24 29.84R WILMINGTON PTCLDY 64 56 75 S13 29.82F $$ NCZ011>013-027>030-043-044-078>080-089-090>093-098-270300- COASTAL PLAIN CITY SKY/WX TMP DP RH WIND PRES REMARKS AHOSKIE CLOUDY 66 57 71 S7 29.73S CLINTON MOCLDY 67 61 81 S7 29.78S ELIZABETHTOWN MOCLDY 66 59 77 S6 29.78F GOLDSBORO PTCLDY 68 67 98 S10 29.74F GREENVILLE CLOUDY 68 59 73 S10G17 29.79S HAVELOCK CLOUDY 65 59 81 S10 29.83S KENANSVILLE MOCLDY 65 57 75 S3 29.79F KINSTON CLOUDY 68 59 73 S13 29.78F NEW BERN CLOUDY 66 56 70 S10 29.81S RICHLANDS MOCLDY 64 54 68 S10 29.80F ROCKY MOUNT CLOUDY 68 58 70 S9 29.74S WASHINGTON CLOUDY 67 58 73 S10G16 29.78S WHITEVILLE MOCLDY 65 58 77 S7 29.80S $$ AMZ130-135-150-152-154-156-158-170-250-252-270-ANZ085-086-088-633-658-670-270300- MARINE OBSERVATIONS STATION/POSITION TIME TEMP WIND PRES WAVE SWELL AIR SEA DIR/SP/G HT/PER HT/PER (UTC) (F) (DEG/KT/KT) (MB) (FT/S) (FT/S) CHESAPEAKE LIGHT 0100 53 190/ 26/ 27 1006.4 64 E VA BEACH 0150 57 51 200/ 21/ 23 1007.5 10/ 9 8/ 9 DUCK 0100 64 41 190/ 15/ 19 1006.9 2 E DUCK 0111 42 N/A 4/ 9 2/11 10 NE DUCK NOT AVBL OREGON INLET 0100 61 59 190/ 20/ 24 1008.7 HATTERAS CG 0100 66 59 190/ 7/ 14 1010.4 CAPE LOOKOUT 0200 64 200/ 11/ 13 1010.5 BEAUFORT LAB 0100 62 58 200/ 12/ 14 1009.3 27 SE WRIGHTSVLE 0100 64 64 220/ 12/ 14 1012.7 5 SE WRIGHTSVLE 0100 60 56 200/ 12/ 14 1010.2 225 S CAPE HAT 0150 71 69 180/ 19/ 23 1014.9 8/ 7 41 SE CHARLESTON 0150 70 70 200/ 12/ 14 1010.1 5/ 8 5/ 8 $$

USA.gov is the U.S. government's official web portal to all federal, state and local government web resources and services.